Location: Unspecified
(0.0000°N, 0.0000°E)
Time: 20:27:21
(UTC+00:00)

CZ-3C DEB - Pass Details

Date: 13 March 2026
Orbit: 404 x 27665 km, 19.3° (Epoch: 21 April)

Event Time Altitude Azimuth Distance (km) Brightness Sun altitude
Rises 20:12:21 0° 283° (WNW) 11,689 ? -30.7°
Reaches altitude 10° 20:19:51 10° 286° (WNW) 12,526 ? -32.6°
Enters shadow 01:46:53 44° 290° (WNW) 22,164 ? -65.5°
Exits shadow 02:55:55 61° 272° (W) 9,800 ? -48.3°
Maximum altitude 03:12:11 76° 208° (SSW) 5,677 ? -44.2°
Drops below altitude 10° 03:27:36 10° 120° (ESE) 4,495 ? -40.4°
Sets 03:29:30 0° 118° (ESE) 4,906 ? -39.9°
